Home Session History Contact

Recorded Sessions


prev .. 9 10 11 12 13 14 15 16 17 18 19 20 21 22 23 24 25 26 27 28 29 30 .. Next

    Target # Date Color Temperature Texture Feelings Assumptions Description Comments
951. 8246-9138 04/16/2011 11:16 PM Blue,Red, Cool Smooth Water
952. 1248-9157 04/12/2011 2:41 AM sand color green sea shell like shapes
953. 7083-9270 04/12/2011 1:38 AM brown
green
humid
hot
rough
adventure rain forest
954. 7804-5713 04/08/2011 1:25 AM not a clue
955. 1248-0268 04/08/2011 1:23 AM shark
956. 8682-2591 04/06/2011 11:44 PM yellow, red hot sand hot, dry desert desert
957. 3591-1372 04/06/2011 11:43 PM blue, green cold-mild water wet water grass and water
958. 5782-3594 04/05/2011 10:19 PM purple Cold Rough SPacious
959. 1248-9157 04/05/2011 11:35 AM gray, yellow, green, black brown many crowded city
960. 0157-7948 04/05/2011 11:34 AM red hot
961. 8349-7138 04/05/2011 11:33 AM mountain mountain with some green
962. 4579-9460 04/05/2011 11:32 AM green, blue, brown no cold, no hot grass, water, sky tranquility forest place with green plants and a lake
963. 2591-1572 04/05/2011 11:30 AM White, black, gray cold snow, soft sadness, solitude oone lives in there Landscape with snow and one tree, very desolate
964. 6480-1571 04/04/2011 5:44 AM blue 44 rough yet come cousy, mad sick sad its sad, its dead, its cool big    long green take it love it just beat it
965. 5793-4602 04/04/2011 5:41 AM black 0 very smooth none winter is about to approch none buy more warm clothes
966. 2248-0268 04/04/2011 5:38 AM brown 25 rough happy it might be ranning later beautiful write anything
967. 1137-8027 04/04/2011 5:31 AM red 37 rough very happy love each other love love those who love me
968. 4369-9150 04/04/2011 5:29 AM black and yellow 37 smooth happy sex beautiful hot and sexy wild
969. 1335-5137 04/04/2011 5:26 AM red, green 42.8 undisturbed, come, smooth unbearable, distinct, heart breaking i feel for it, sympathy bold,unpredictable, and hugely gingantic just leave it i know it will survive
970. 2480-0269 04/04/2011 5:22 AM blue 38.1/2 rough cousy, uphoria i think its dead round and a bit disfigured should be ressurected if possible, i need it, and i think so do you
971. 8804-2613 03/28/2011 9:54 PM blue, green. yellow, orange cool water, clouds sin rise/set, water, birds
972. 8905-5724 03/25/2011 9:43 PM Blue 111190* Rough Hot
973. 8915-6827 03/25/2011 9:42 PM Purple 75*
974. 4379-9460 03/24/2011 11:19 PM yellow orange wood, tree
975. 8246-9137 03/24/2011 11:11 PM cold archs
976. 0248-8150 03/24/2011 11:08 PM cold something in the distance
977. 3915-5824 03/23/2011 11:36 PM red 25 canvas plain bad nothing none
978. 9894-4605 03/23/2011 1:33 AM sun or fire, water or moisture,
979. 8913-4805 03/23/2011 1:31 AM wood or paper, land, plants
980. 2127-7938 03/23/2011 1:28 AM water, land
981. 9150-8249 03/21/2011 3:58 AM black
982. 1579-0460 03/21/2011 3:58 AM yelllow
983. 0248-8057 03/21/2011 3:57 AM red 30
984. 8935-5726 03/21/2011 3:56 AM orange 32 hard confused fg y fd
985. 7804-2613 03/20/2011 10:26 PM fire
986. 8672-2491 03/20/2011 10:23 PM ropes or sticks. table
987. 6561-1372 03/20/2011 12:28 AM a hole, mountain and water
988. 6793-3602 03/19/2011 11:15 PM Person
989. 8236-6037 03/19/2011 11:13 PM puffy clouds, person
990. 2248-6057 03/19/2011 11:12 PM person grass
991. 3138-8049 03/19/2011 11:09 PM cross, sticks, multiple loops,
992. 7379-9160 03/19/2011 11:08 PM fence
993. 9591-1393 03/19/2011 11:07 PM purple
994. 9157-7948 03/19/2011 11:04 PM fish bucket
995. 4258-8259 03/19/2011 11:03 PM Green Big spinnnig circle like a carosel
996. 2157-7248 03/17/2011 11:26 PM Hanging eggs
997. 2248-9157 03/17/2011 11:24 PM big oval or a lake
998. 4571-1380 03/16/2011 10:56 PM house
999. 7602-2493 03/16/2011 10:56 PM big tree
1000. 1359-7268 03/16/2011 10:55 PM antena

prev .. 9 10 11 12 13 14 15 16 17 18 19 20 21 22 23 24 25 26 27 28 29 30 .. Next






Date & Time in Pacific Time
Copyright 2018 DevelopESP.com All rights reserved.